Weather History for South St. Paul, MN

Change the Weather History Date:

Wednesday, July 10, 2013

  Actual Average (KMSP) Record (KMSP)
Temperature  
Mean Temperature 73 °F 74 °F  
Max Temperature 82 °F 84 °F 106 °F (1936)
Min Temperature 65 °F 64 °F 49 °F (1996)
Degree Days  
Heating Degree Days 0 0  
Month to date heating degree days 0  
Since 1 June heating degree days 44  
Since 1 July heating degree days 0  
Cooling Degree Days 8 9  
Month to date cooling degree days 88  
Year to date cooling degree days 288  
Since 1 June cooling degree days 246  
Growing Degree Days 23 (Base 50)    
Moisture  
Dew Point 55 °F    
Average Humidity 52    
Maximum Humidity 72    
Minimum Humidity 34    
Precipitation  
Precipitation 0.00 in 0.13 in 1.93 in (2002)
Month to date precipitation 1.28  
Year to date precipitation 15.11  
Snow  
Snow 0.00 in 0.00 in 0.00 in ()
Month to date snowfall 0.0  
Since 1 June snowfall 0.0  
Since 1 July snowfall 0.0  
Snow Depth -    
Sea Level Pressure  
Sea Level Pressure 30.01 in    
Wind  
Wind Speed 10 mph (NNW)    
Max Wind Speed 16 mph    
Max Gust Speed 25 mph    
Visibility 10 miles    
Events      
T = Trace of Precipitation, MM = Missing Value Source: NWS Daily Summary

Daily Weather History Graph

Daily Weather History Graph

Search for Another Location

Airport:

Trip Planner

Search our weather history database for the weather conditions in past years. The results will help you decide how hot, cold, wet, or windy it might be!

Date:

Astronomy

Jul. 10, 2013 Rise Set
Actual Time 5:36 AM CDT 8:58 PM CDT
Civil Twilight 4:59 AM CDT 9:34 PM CDT
Nautical Twilight 4:12 AM CDT 10:21 PM CDT
Astronomical Twilight 3:12 AM CDT 11:21 PM CDT
Moon 8:05 AM CDT (7/10) 9:59 PM CDT (7/10)
Length of Visible Light 16h 34m
Length of Day
15h 22m
Waxing Crescent, 5% of the Moon is Illuminated
Jul 10
Waxing Crescent
Jul 15
First Quarter
Jul 22
Full
Jul 29
Last Quarter
Aug 6
New

Hourly Weather History & Observations

Time (CDT) Temp. Dew Point Humidity Pressure Visibility Wind Dir Wind Speed Gust Speed Precip Events Conditions
12:13 AM 76.8 °F 62.8 °F 62% 29.91 in 10.0 mi NW 12.7 mph 17.3 mph N/A   Clear
12:33 AM 76.1 °F 63.0 °F 64% 29.92 in 10.0 mi NW 12.7 mph 21.9 mph N/A   Scattered Clouds
12:53 AM 75.2 °F 62.6 °F 65% 29.92 in 10.0 mi NW 15.0 mph 21.9 mph N/A   Clear
1:13 AM 75.0 °F 61.7 °F 63% 29.93 in 10.0 mi NNW 11.5 mph 21.9 mph N/A   Scattered Clouds
1:33 AM 73.8 °F 61.5 °F 65% 29.93 in 10.0 mi NNW 9.2 mph - N/A   Scattered Clouds
1:53 AM 73.2 °F 61.2 °F 66% 29.94 in 10.0 mi NW 10.4 mph - N/A   Clear
2:13 AM 72.5 °F 60.4 °F 66% 29.94 in 10.0 mi NNW 15.0 mph 19.6 mph N/A   Clear
2:33 AM 71.8 °F 59.4 °F 65% 29.94 in 10.0 mi NW 11.5 mph 19.6 mph N/A   Clear
2:53 AM 71.1 °F 59.0 °F 66% 29.95 in 10.0 mi NW 11.5 mph 18.4 mph N/A   Clear
3:13 AM 69.8 °F 57.7 °F 65% 29.96 in 10.0 mi NNW 16.1 mph 23.0 mph N/A   Clear
3:33 AM 69.3 °F 56.3 °F 63% 29.97 in 10.0 mi NNW 11.5 mph 20.7 mph N/A   Clear
3:53 AM 68.5 °F 54.7 °F 61% 29.98 in 10.0 mi NNW 11.5 mph 20.7 mph N/A   Clear
4:13 AM 68.2 °F 54.5 °F 62% 29.99 in 10.0 mi NNW 10.4 mph 19.6 mph N/A   Clear
4:33 AM 67.3 °F 55.2 °F 65% 30.00 in 10.0 mi NNW 10.4 mph - N/A   Clear
4:53 AM 66.9 °F 55.8 °F 67% 30.00 in 10.0 mi NW 10.4 mph - N/A   Clear
5:13 AM 66.6 °F 55.8 °F 68% 30.01 in 10.0 mi NNW 9.2 mph - N/A   Clear
5:33 AM 66.2 °F 55.8 °F 69% 30.01 in 10.0 mi NW 9.2 mph - N/A   Clear
5:53 AM 66.0 °F 55.9 °F 70% 30.02 in 10.0 mi NW 6.9 mph - N/A   Clear
6:13 AM 65.5 °F 56.3 °F 72% 30.03 in 10.0 mi NW 5.8 mph - N/A   Clear
6:33 AM 65.8 °F 56.3 °F 71% 30.03 in 10.0 mi NW 8.1 mph - N/A   Clear
6:53 AM 66.2 °F 56.1 °F 70% 30.04 in 10.0 mi NW 8.1 mph - N/A   Clear
7:13 AM 66.4 °F 55.8 °F 69% 30.04 in 10.0 mi NW 9.2 mph - N/A   Clear
7:33 AM 67.1 °F 55.8 °F 67% 30.05 in 10.0 mi NW 8.1 mph - N/A   Clear
7:53 AM 68.0 °F 56.1 °F 66% 30.05 in 10.0 mi NNW 8.1 mph - N/A   Clear
8:13 AM 68.5 °F 55.6 °F 63% 30.05 in 10.0 mi NNW 11.5 mph - N/A   Clear
8:33 AM 69.3 °F 56.1 °F 63% 30.05 in 10.0 mi NW 9.2 mph - N/A   Clear
8:53 AM 70.0 °F 55.8 °F 61% 30.05 in 10.0 mi North 8.1 mph - N/A   Clear
9:08 AM 71.1 °F 55.6 °F 58% 30.05 in 10.0 mi North 8.1 mph - N/A   Clear
9:33 AM 72.3 °F 54.9 °F 54% 30.05 in 10.0 mi NW 9.2 mph - N/A   Clear
9:53 AM 72.7 °F 54.1 °F 52% 30.05 in 10.0 mi NW 10.4 mph 16.1 mph N/A   Clear
10:13 AM 73.6 °F 53.6 °F 50% 30.05 in 10.0 mi NNW 12.7 mph 19.6 mph N/A   Clear
10:33 AM 74.3 °F 54.5 °F 50% 30.05 in 10.0 mi NNW 11.5 mph - N/A   Clear
10:53 AM 75.2 °F 55.8 °F 51% 30.04 in 10.0 mi North 12.7 mph 17.3 mph N/A   Clear
11:13 AM 76.3 °F 54.9 °F 47% 30.04 in 10.0 mi NW 15.0 mph 20.7 mph N/A   Clear
11:33 AM 76.8 °F 52.3 °F 42% 30.03 in 10.0 mi North 15.0 mph 18.4 mph N/A   Clear
11:53 AM 76.8 °F 51.1 °F 40% 30.04 in 10.0 mi North 15.0 mph 23.0 mph N/A   Clear
12:13 PM 78.1 °F 51.1 °F 39% 30.03 in 10.0 mi NNW 12.7 mph 20.7 mph N/A   Clear
12:33 PM 78.4 °F 49.8 °F 37% 30.03 in 10.0 mi NNW 15.0 mph 25.3 mph N/A   Clear
12:53 PM 79.0 °F 50.7 °F 37% 30.03 in 10.0 mi North 15.0 mph 23.0 mph N/A   Clear
1:13 PM 79.2 °F 51.4 °F 38% 30.03 in 10.0 mi North 16.1 mph 21.9 mph N/A   Clear
1:33 PM 79.7 °F 52.3 °F 39% 30.03 in 10.0 mi NNW 9.2 mph - N/A   Clear
1:53 PM 79.5 °F 51.4 °F 37% 30.03 in 10.0 mi NNW 13.8 mph - N/A   Clear
2:11 PM 79.7 °F 52.5 °F 39% 30.02 in 10.0 mi NNW 11.5 mph 20.7 mph N/A   Clear
2:33 PM 80.4 °F 51.8 °F 37% 30.03 in 10.0 mi North 8.1 mph 17.3 mph N/A   Clear
2:53 PM 80.6 °F 52.3 °F 37% 30.03 in 10.0 mi North 11.5 mph 17.3 mph N/A   Clear
3:13 PM 81.0 °F 51.3 °F 36% 30.03 in 10.0 mi North 12.7 mph 23.0 mph N/A   Clear
3:33 PM 81.1 °F 50.0 °F 34% 30.02 in 10.0 mi NNE 10.4 mph 16.1 mph N/A   Clear
3:53 PM 81.3 °F 51.4 °F 35% 30.02 in 10.0 mi North 6.9 mph - N/A   Scattered Clouds
4:13 PM 81.0 °F 50.4 °F 34% 30.02 in 10.0 mi NNW 6.9 mph - N/A   Clear
4:33 PM 81.7 °F 50.5 °F 34% 30.01 in 10.0 mi North 10.4 mph - N/A   Clear
4:53 PM 81.0 °F 50.2 °F 34% 30.02 in 10.0 mi North 9.2 mph - N/A   Clear
5:13 PM 80.6 °F 50.4 °F 35% 30.02 in 10.0 mi North 9.2 mph - N/A   Scattered Clouds
5:33 PM 81.1 °F 51.1 °F 35% 30.01 in 10.0 mi NNW 10.4 mph - N/A   Scattered Clouds
5:53 PM 81.1 °F 50.2 °F 34% 30.00 in 10.0 mi NNE 5.8 mph - N/A   Scattered Clouds
6:13 PM 81.0 °F 49.8 °F 34% 30.00 in 10.0 mi North 6.9 mph - N/A   Scattered Clouds
6:33 PM 80.6 °F 50.0 °F 34% 30.00 in 10.0 mi North 9.2 mph - N/A   Scattered Clouds
6:53 PM 80.6 °F 50.4 °F 35% 30.00 in 10.0 mi North 5.8 mph - N/A   Clear
7:13 PM 79.7 °F 51.4 °F 37% 30.00 in 10.0 mi NNW 3.5 mph - N/A   Clear
7:33 PM 79.7 °F 50.7 °F 36% 30.00 in 10.0 mi North 4.6 mph - N/A   Clear
7:53 PM 79.2 °F 50.9 °F 37% 30.00 in 10.0 mi NNW 4.6 mph - N/A   Clear
8:13 PM 77.9 °F 52.2 °F 41% 30.00 in 10.0 mi North 3.5 mph - N/A   Clear
8:33 PM 77.9 °F 52.2 °F 41% 30.00 in 10.0 mi Calm Calm - N/A   Clear
8:53 PM 77.5 °F 53.8 °F 44% 30.01 in 10.0 mi Calm Calm - N/A   Clear
9:13 PM 76.3 °F 54.1 °F 46% 30.01 in 10.0 mi Calm Calm - N/A   Clear
9:33 PM 73.8 °F 58.8 °F 59% 30.02 in 10.0 mi Calm Calm - N/A   Clear
9:53 PM 73.6 °F 58.6 °F 59% 30.02 in 10.0 mi Calm Calm - N/A   Clear
10:13 PM 73.2 °F 58.6 °F 60% 30.03 in 10.0 mi Calm Calm - N/A   Clear
10:33 PM 71.6 °F 59.0 °F 64% 30.03 in 10.0 mi Calm Calm - N/A   Clear
10:53 PM 71.4 °F 58.5 °F 64% 30.04 in 10.0 mi Calm Calm - N/A   Clear
11:13 PM 71.2 °F 58.3 °F 64% 30.04 in 10.0 mi Calm Calm - N/A   Clear
11:33 PM 70.9 °F 57.7 °F 63% 30.05 in 10.0 mi Calm Calm - N/A   Clear
11:53 PM 70.3 °F 57.9 °F 65% 30.05 in 10.0 mi Calm Calm - N/A   Clear